IZ1REU Weather Reports


time (UTC)temp
C
wind
direction
speed
KPH
gust
KPH
rain 1hr
cm
rain 24hr
cm
rain mn
cm
humidity
%
barometer
mb
20260507230036 13 11 1.6 11.3 0.00 0.00 0.00 86 1013.0
20260507225533 13 306 6.4 8.0 0.00 0.00 0.00 86 1013.0
20260507225036 13 311 6.4 8.0 0.00 0.00 0.00 85 1013.1
20260507224533 13 17 3.2 8.0 0.00 0.00 0.00 85 1013.1
20260507224030 13 336 4.8 8.0 0.00 0.00 0.00 86 1013.1
20260507223530 13 65 0.0 6.4 0.00 0.00 0.00 86 1013.1
20260507223030 13 331 1.6 8.0 0.00 0.00 0.00 86 1013.1
20260507222536 13 330 3.2 9.7 0.00 0.00 0.00 86 1013.0
20260507222033 13 327 4.8 9.7 0.00 0.00 0.00 86 1013.0
20260507221530 13 315 8.0 8.0 0.00 0.00 0.00 86 1013.0
20260507221030 14 308 3.2 9.7 0.00 0.00 0.00 86 1013.0
20260507220530 14 323 4.8 6.4 0.00 0.00 0.00 86 1013.0
20260507220030 14 336 3.2 4.8 0.00 0.00 0.00 86 1013.0
20260507215536 14 324 6.4 8.0 0.00 0.00 0.00 86 1013.0
20260507215030 14 321 6.4 8.0 0.00 0.00 0.00 86 1012.8
20260507214530 14 314 3.2 6.4 0.00 0.00 0.00 87 1012.8
20260507214030 14 341 1.6 8.0 0.00 0.00 0.00 87 1012.8
20260507213530 14 309 0.0 6.4 0.00 0.00 0.00 86 1012.8
20260507213036 14 31 3.2 6.4 0.00 0.00 0.00 86 1012.7
20260507212530 15 313 4.8 6.4 0.00 0.00 0.00 86 1012.7
20260507212030 15 317 3.2 4.8 0.00 0.00 0.00 86 1012.7
20260507211539 15 312 3.2 4.8 0.00 0.00 0.00 87 1012.7
20260507211036 15 21 0.0 8.0 0.00 0.00 0.00 87 1012.8
20260507210533 15 316 3.2 6.4 0.00 0.00 0.00 87 1012.8
20260507210033 15 309 1.6 4.8 0.00 0.00 0.00 87 1012.8
20260507205539 15 301 0.0 6.4 0.00 0.00 0.00 87 1012.8
20260507205030 15 17 3.2 8.0 0.00 0.00 0.00 87 1012.8
20260507204530 15 323 6.4 8.0 0.00 0.00 0.00 86 1012.7
20260507204030 15 328 4.8 6.4 0.00 0.00 0.00 86 1012.8
20260507203536 15 345 1.6 4.8 0.00 0.00 0.00 86 1012.8
20260507203033 15 319 4.8 6.4 0.00 0.00 0.00 86 1012.7
20260507202533 15 305 0.0 1.6 0.00 0.00 0.00 85 1012.7
20260507202030 15 294 0.0 3.2 0.00 0.00 0.00 85 1012.7
20260507201533 16 313 0.0 4.8 0.00 0.00 0.00 85 1012.6
20260507201033 16 284 0.0 4.8 0.00 0.00 0.00 85 1012.6
20260507200536 16 290 0.0 4.8 0.00 0.00 0.00 85 1012.5
20260507200030 16 331 4.8 4.8 0.00 0.00 0.00 85 1012.4
20260507195530 16 320 3.2 6.4 0.00 0.00 0.00 84 1012.4
20260507195030 16 312 1.6 6.4 0.00 0.00 0.00 84 1012.3
20260507194530 16 323 3.2 6.4 0.00 0.00 0.00 83 1012.3
20260507194030 16 327 1.6 3.2 0.00 0.00 0.00 82 1012.3
20260507193530 16 144 0.0 0.0 0.00 0.00 0.00 82 1012.2
20260507193033 17 145 0.0 0.0 0.00 0.00 0.00 82 1012.3
20260507192536 17 145 0.0 0.0 0.00 0.00 0.00 81 1012.3
20260507192030 17 145 0.0 0.0 0.00 0.00 0.00 81 1012.3
20260507191530 17 145 0.0 1.6 0.00 0.00 0.00 81 1012.3
20260507191030 17 207 0.0 1.6 0.00 0.00 0.00 81 1012.2
20260507190530 17 164 0.0 0.0 0.00 0.00 0.00 80 1012.2
20260507190033 17 132 0.0 0.0 0.00 0.00 0.00 81 1012.2
20260507185530 17 132 0.0 1.6 0.00 0.00 0.00 80 1012.2
20260507185033 17 153 0.0 3.2 0.00 0.00 0.00 80 1012.2
20260507184533 17 221 0.0 1.6 0.00 0.00 0.00 80 1012.2
20260507184033 17 106 0.0 0.0 0.00 0.00 0.00 80 1012.3
20260507183530 17 106 0.0 0.0 0.00 0.00 0.00 80 1012.3
20260507183033 17 105 0.0 3.2 0.00 0.00 0.00 80 1012.3
20260507182530 17 109 0.0 4.8 0.00 0.00 0.00 80 1012.3
20260507182036 17 121 0.0 3.2 0.00 0.00 0.00 79 1012.3
20260507181533 17 234 0.0 4.8 0.00 0.00 0.00 79 1012.2
20260507181030 17 227 0.0 3.2 0.00 0.00 0.00 78 1012.1
20260507180530 18 121 0.0 4.8 0.00 0.00 0.00 77 1012.2
20260507180033 18 161 6.4 6.4 0.00 0.00 0.00 77 1012.3
20260507175530 18 230 0.0 3.2 0.00 0.00 0.00 76 1012.3
20260507175033 18 202 0.0 6.4 0.00 0.00 0.00 75 1012.2
20260507174536 18 118 0.0 6.4 0.00 0.00 0.00 75 1012.2
20260507174033 18 240 0.0 4.8 0.00 0.00 0.00 76 1012.2
20260507173533 18 241 0.0 9.7 0.00 0.00 0.00 74 1012.2
20260507173030 19 232 0.0 4.8 0.00 0.00 0.00 74 1012.2
20260507172533 19 139 0.0 4.8 0.00 0.00 0.00 73 1012.3
20260507172030 19 129 3.2 3.2 0.00 0.00 0.00 74 1012.3
20260507171533 19 146 0.0 8.0 0.00 0.00 0.00 75 1012.3
20260507171030 19 217 4.8 11.3 0.00 0.00 0.00 74 1012.3
20260507170530 20 132 3.2 11.3 0.00 0.00 0.00 74 1012.2
20260507170033 20 223 4.8 11.3 0.00 0.00 0.00 73 1012.1
20260507165530 20 216 1.6 12.9 0.00 0.00 0.00 73 1012.1
20260507165030 20 116 6.4 6.4 0.00 0.00 0.00 72 1012.1
20260507164530 20 302 0.0 4.8 0.00 0.00 0.00 72 1012.1
20260507164030 20 103 0.0 8.0 0.00 0.00 0.00 73 1012.1
20260507163536 20 134 1.6 8.0 0.00 0.00 0.00 72 1012.1
20260507163030 20 208 0.0 8.0 0.00 0.00 0.00 73 1012.2
20260507162530 20 142 3.2 9.7 0.00 0.00 0.00 73 1012.1
20260507162036 20 121 1.6 9.7 0.00 0.00 0.00 72 1012.1
20260507161540 20 144 3.2 6.4 0.00 0.00 0.00 72 1012.1
20260507161033 20 148 1.6 14.5 0.00 0.00 0.00 72 1012.1
20260507160533 20 178 0.0 9.7 0.00 0.00 0.00 72 1012.1
20260507160030 20 133 3.2 6.4 0.00 0.00 0.00 73 1012.1
20260507155536 20 130 6.4 12.9 0.00 0.00 0.00 72 1012.1
20260507155039 20 230 1.6 12.9 0.00 0.00 0.00 72 1012.1
20260507154536 20 150 3.2 17.7 0.00 0.00 0.00 72 1012.1
20260507154030 20 242 1.6 8.0 0.00 0.00 0.00 72 1012.2
20260507153530 20 103 1.6 14.5 0.00 0.00 0.00 72 1012.2
20260507153033 20 168 1.6 16.1 0.00 0.00 0.00 71 1012.2
20260507152530 20 126 3.2 9.7 0.00 0.00 0.00 73 1012.1
20260507152033 20 197 0.0 11.3 0.00 0.00 0.00 73 1012.2
20260507151530 20 144 4.8 12.9 0.00 0.00 0.00 73 1012.2
20260507151030 20 154 6.4 14.5 0.00 0.00 0.00 74 1012.3
20260507150530 20 180 8.0 14.5 0.00 0.00 0.00 73 1012.3
20260507150030 20 129 1.6 9.7 0.00 0.00 0.00 73 1012.2
20260507145530 20 243 9.7 12.9 0.00 0.00 0.00 72 1012.2
20260507145030 20 277 1.6 11.3 0.00 0.00 0.00 72 1012.2
20260507144530 20 119 4.8 16.1 0.00 0.00 0.00 73 1012.2
20260507144033 19 146 1.6 16.1 0.00 0.00 0.00 74 1012.2
20260507143536 19 130 12.9 16.1 0.00 0.00 0.00 73 1012.3
20260507143033 20 119 12.9 16.1 0.00 0.00 0.00 73 1012.3
20260507142533 20 110 1.6 17.7 0.00 0.00 0.00 71 1012.3
20260507142030 20 150 1.6 14.5 0.00 0.00 0.00 71 1012.5
20260507141533 20 86 6.4 19.3 0.00 0.00 0.00 72 1012.5
20260507141033 20 137 4.8 17.7 0.00 0.00 0.00 71 1012.5
20260507140536 20 284 4.8 17.7 0.00 0.00 0.00 70 1012.5
20260507140030 20 84 4.8 14.5 0.00 0.00 0.00 73 1012.5
20260507135530 20 158 4.8 20.9 0.00 0.00 0.00 74 1012.5
20260507135033 20 178 4.8 17.7 0.00 0.00 0.00 73 1012.5
20260507134533 20 120 6.4 17.7 0.00 0.00 0.00 74 1012.5
20260507134033 20 105 3.2 16.1 0.00 0.00 0.00 73 1012.5
20260507133530 20 138 8.0 20.9 0.00 0.00 0.00 72 1012.5
20260507133036 20 275 1.6 19.3 0.00 0.00 0.00 74 1012.5
20260507132530 20 347 0.0 17.7 0.00 0.00 0.00 73 1012.4
20260507132030 20 116 9.7 17.7 0.00 0.00 0.00 73 1012.4
20260507131533 20 125 3.2 19.3 0.00 0.00 0.00 72 1012.6
20260507131033 20 132 16.1 14.5 0.00 0.00 0.00 72 1012.4
20260507130533 20 103 14.5 11.3 0.00 0.00 0.00 73 1012.6
20260507130039 20 236 6.4 16.1 0.00 0.00 0.00 73 1012.5
20260507125530 20 236 3.2 12.9 0.00 0.00 0.00 74 1012.5
20260507125033 20 164 17.7 17.7 0.00 0.00 0.00 75 1012.5
20260507124533 20 137 12.9 17.7 0.00 0.00 0.00 74 1012.5
20260507124033 20 243 0.0 22.5 0.00 0.00 0.00 75 1012.4
20260507123530 20 216 4.8 20.9 0.00 0.00 0.00 73 1012.4
20260507123030 20 146 9.7 20.9 0.00 0.00 0.00 73 1012.3
20260507122530 20 239 8.0 14.5 0.00 0.00 0.00 73 1012.3
20260507122030 20 200 6.4 12.9 0.00 0.00 0.00 74 1012.3
20260507121530 20 302 0.0 19.3 0.00 0.00 0.00 75 1012.2
20260507121033 20 157 11.3 12.9 0.00 0.00 0.00 74 1012.3
20260507120530 20 56 1.6 12.9 0.00 0.00 0.00 73 1012.3
20260507120035 20 131 11.3 16.1 0.00 0.00 0.00 73 1012.3
20260507115530 20 136 6.4 17.7 0.00 0.00 0.00 73 1012.4
20260507115030 20 106 0.0 17.7 0.00 0.00 0.00 76 1012.2
20260507114539 20 209 6.4 19.3 0.00 0.00 0.00 75 1012.3
20260507114030 20 91 9.7 14.5 0.00 0.00 0.00 73 1012.5
20260507113539 20 153 4.8 12.9 0.00 0.00 0.00 72 1012.6
20260507113036 20 96 4.8 14.5 0.00 0.00 0.00 72 1012.6
20260507112533 20 212 0.0 14.5 0.00 0.00 0.00 72 1012.6
20260507112030 20 129 3.2 12.9 0.00 0.00 0.00 71 1012.6
20260507111533 20 138 3.2 16.1 0.00 0.00 0.00 70 1012.6
20260507111033 20 65 4.8 16.1 0.00 0.00 0.00 71 1012.7
20260507110536 20 302 0.0 11.3 0.00 0.00 0.00 71 1012.6
20260507110033 20 152 4.8 11.3 0.00 0.00 0.00 73 1012.6
20260507105530 20 274 3.2 16.1 0.00 0.00 0.00 74 1012.5
20260507105030 20 151 3.2 11.3 0.00 0.00 0.00 75 1012.4
20260507104530 19 312 1.6 14.5 0.00 0.00 0.00 75 1012.5
20260507104033 19 140 1.6 11.3 0.00 0.00 0.00 76 1012.5
20260507103530 18 126 11.3 20.9 0.00 0.00 0.00 78 1012.5
20260507103030 19 74 1.6 17.7 0.00 0.00 0.00 76 1012.5
20260507102530 18 95 17.7 20.9 0.00 0.00 0.00 76 1012.6
20260507102033 18 264 1.6 20.9 0.00 0.00 0.00 77 1012.5
20260507101530 18 142 3.2 19.3 0.00 0.00 0.00 79 1012.4
20260507101033 18 145 12.9 20.9 0.00 0.00 0.00 81 1012.5
20260507100533 17 153 8.0 24.1 0.00 0.00 0.00 81 1012.5
20260507100036 18 152 16.1 19.3 0.00 0.00 0.00 80 1012.5
20260507095533 18 139 6.4 16.1 0.00 0.00 0.00 79 1012.4
20260507095036 18 135 14.5 25.7 0.00 0.00 0.00 78 1012.5
20260507094530 18 128 20.9 22.5 0.00 0.00 0.00 77 1012.5
20260507094030 18 130 3.2 16.1 0.00 0.00 0.00 78 1012.5
20260507093533 19 138 4.8 22.5 0.00 0.00 0.00 77 1012.5
20260507093039 19 135 14.5 22.5 0.00 0.00 0.00 76 1012.5
20260507092533 19 286 1.6 24.1 0.00 0.00 0.00 78 1012.4
20260507092033 18 169 17.7 20.9 0.00 0.00 0.00 77 1012.4
20260507091533 18 138 14.5 24.1 0.00 0.00 0.00 75 1012.4
20260507091030 19 88 1.6 22.5 0.00 0.00 0.00 75 1012.3
20260507090533 19 105 17.7 19.3 0.00 0.00 0.00 75 1012.3
20260507090033 19 219 1.6 25.7 0.00 0.00 0.00 75 1012.3
20260507085530 19 141 6.4 22.5 0.00 0.00 0.00 75 1012.3
20260507085039 18 107 1.6 30.6 0.00 0.00 0.00 75 1012.3
20260507084530 18 145 8.0 16.1 0.00 0.00 0.00 76 1012.2
20260507084030 18 140 4.8 20.9 0.00 0.00 0.00 76 1012.1
20260507083533 19 116 9.7 19.3 0.00 0.00 0.00 75 1012.1
20260507083030 19 98 3.2 16.1 0.00 0.00 0.00 75 1012.1
20260507082530 18 130 3.2 11.3 0.00 0.00 0.00 77 1012.1
20260507082030 17 260 0.0 19.3 0.00 0.00 0.00 78 1012.1
20260507081536 17 117 11.3 17.7 0.00 0.00 0.00 79 1011.9
20260507081030 17 138 8.0 24.1 0.00 0.00 0.00 78 1011.9
20260507080530 17 144 3.2 17.7 0.00 0.00 0.00 78 1011.8
20260507080035 17 90 3.2 17.7 0.00 0.00 0.00 78 1011.8
20260507075530 17 355 4.8 16.1 0.00 0.00 0.00 78 1011.9
20260507075030 17 114 4.8 20.9 0.00 0.00 0.00 78 1011.7
20260507074533 17 113 22.5 22.5 0.00 0.00 0.00 77 1011.6
20260507074033 17 123 4.8 17.7 0.00 0.00 0.00 76 1011.6
20260507073530 17 136 6.4 19.3 0.00 0.00 0.00 75 1011.5
20260507073039 17 227 6.4 20.9 0.00 0.00 0.00 76 1011.5
20260507072530 17 102 9.7 12.9 0.00 0.00 0.00 75 1011.4
20260507072036 17 142 8.0 16.1 0.00 0.00 0.00 75 1011.4
20260507071530 17 244 1.6 20.9 0.00 0.00 0.00 74 1011.4
20260507071030 17 79 1.6 16.1 0.00 0.00 0.00 75 1011.4
20260507070539 17 128 3.2 17.7 0.00 0.00 0.00 74 1011.4
20260507070030 17 84 11.3 25.7 0.00 0.00 0.00 74 1011.3
20260507065530 17 121 0.0 16.1 0.00 0.00 0.00 74 1011.3
20260507065030 17 121 4.8 16.1 0.00 0.03 0.00 75 1011.3
20260507064530 17 125 11.3 14.5 0.00 0.08 0.00 75 1011.3
20260507064033 17 96 1.6 12.9 0.00 0.08 0.00 75 1011.3
20260507063530 17 129 8.0 14.5 0.00 0.08 0.00 76 1011.3
20260507063030 17 236 4.8 9.7 0.00 0.08 0.00 76 1011.2
20260507062533 17 117 9.7 16.1 0.00 0.10 0.00 75 1011.3
20260507062033 17 104 0.0 17.7 0.00 0.10 0.00 75 1011.2
20260507061533 17 116 1.6 14.5 0.00 0.10 0.00 75 1011.2
20260507061030 17 112 0.0 12.9 0.00 0.10 0.00 75 1011.2
20260507060530 17 80 0.0 8.0 0.00 0.10 0.00 76 1011.1
20260507060030 17 86 0.0 9.7 0.00 0.10 0.00 77 1011.0
20260507055536 17 55 3.2 14.5 0.00 0.10 0.00 77 1011.0
20260507055036 17 111 3.2 3.2 0.00 0.10 0.00 79 1011.1
20260507054530 16 131 0.0 6.4 0.00 0.10 0.00 79 1011.1
20260507054039 16 92 0.0 4.8 0.00 0.10 0.00 79 1011.0
20260507053533 16 123 1.6 9.7 0.00 0.10 0.00 79 1011.0
20260507053030 16 133 1.6 4.8 0.00 0.13 0.00 79 1010.9
20260507052533 16 127 0.0 4.8 0.00 0.13 0.00 80 1011.0
20260507052036 16 146 0.0 11.3 0.00 0.13 0.00 80 1011.0
20260507051530 16 108 0.0 9.7 0.00 0.13 0.00 80 1010.8
20260507051036 16 111 0.0 6.4 0.00 0.13 0.00 80 1010.8
20260507050533 16 132 1.6 9.7 0.00 0.13 0.00 81 1010.6
20260507050033 16 106 1.6 4.8 0.00 0.13 0.00 81 1010.5
20260507045533 16 69 4.8 9.7 0.00 0.13 0.00 81 1010.4
20260507045030 16 111 0.0 12.9 0.00 0.13 0.00 81 1010.4
20260507044530 16 114 4.8 9.7 0.00 0.13 0.00 81 1010.4
20260507044030 16 96 3.2 14.5 0.00 0.13 0.00 81 1010.4
20260507043530 16 115 0.0 9.7 0.00 0.13 0.00 81 1010.4
20260507043033 16 131 1.6 11.3 0.00 0.13 0.00 81 1010.3
20260507042530 16 80 3.2 11.3 0.00 0.13 0.00 81 1010.4
20260507042033 16 126 0.0 11.3 0.00 0.13 0.00 81 1010.3
20260507041539 16 119 1.6 6.4 0.00 0.13 0.00 82 1010.2
20260507041030 16 119 0.0 6.4 0.00 0.18 0.00 82 1010.2
20260507040536 16 109 1.6 8.0 0.00 0.18 0.00 82 1010.2
20260507040030 16 125 0.0 17.7 0.00 0.20 0.00 82 1010.3
20260507035530 16 136 1.6 14.5 0.00 0.23 0.00 81 1010.2
20260507035033 16 110 1.6 11.3 0.00 0.23 0.00 81 1010.2
20260507034533 16 125 0.0 6.4 0.00 0.25 0.00 81 1010.2
20260507034030 16 88 0.0 6.4 0.00 0.25 0.00 81 1010.3
20260507033533 16 139 0.0 8.0 0.00 0.25 0.00 81 1010.2
20260507033030 16 134 0.0 11.3 0.00 0.25 0.00 81 1010.2
20260507032539 16 128 1.6 11.3 0.00 0.25 0.00 81 1010.2
20260507032030 16 151 6.4 9.7 0.00 0.25 0.00 81 1010.1
20260507031530 16 96 1.6 16.1 0.00 0.25 0.00 81 1010.1
20260507031030 16 101 6.4 9.7 0.00 0.25 0.00 81 1010.2
20260507030530 16 113 3.2 11.3 0.00 0.25 0.00 81 1010.2
20260507030030 16 72 0.0 16.1 0.00 0.25 0.00 81 1010.2
20260507025536 16 155 11.3 14.5 0.00 0.25 0.00 81 1010.1
20260507025030 16 135 4.8 16.1 0.00 0.25 0.00 81 1010.1
20260507024530 16 68 3.2 6.4 0.00 0.25 0.00 81 1010.1
20260507024030 16 132 4.8 6.4 0.00 0.28 0.00 81 1010.1
20260507023533 16 126 0.0 9.7 0.00 0.28 0.00 81 1010.1
20260507023030 16 117 0.0 6.4 0.00 0.28 0.00 81 1010.1
20260507022533 16 184 6.4 9.7 0.00 0.28 0.00 81 1010.1
20260507022033 16 129 4.8 11.3 0.00 0.28 0.00 81 1010.2
20260507021539 16 105 1.6 8.0 0.00 0.30 0.00 81 1010.2
20260507021036 16 147 1.6 11.3 0.00 0.33 0.00 81 1010.1
20260507020533 16 138 1.6 16.1 0.00 0.33 0.00 81 1010.1
20260507020036 16 115 1.6 16.1 0.00 0.71 0.00 79 1010.2
20260507015533 16 144 4.8 16.1 0.00 0.74 0.00 79 1010.1
20260507015030 16 146 1.6 9.7 0.00 0.81 0.00 79 1010.1
20260507014530 16 131 1.6 12.9 0.00 0.91 0.00 79 1010.1
20260507014033 16 133 3.2 9.7 0.00 0.97 0.00 78 1010.0
20260507013530 16 91 6.4 14.5 0.00 1.02 0.00 78 1010.1
20260507013036 16 148 3.2 11.3 0.00 1.17 0.00 78 1010.1
20260507012530 16 152 4.8 11.3 0.00 1.30 0.00 78 1010.2
20260507012033 16 149 3.2 11.3 0.00 1.40 0.00 78 1010.2
20260507011530 16 139 6.4 12.9 0.00 1.45 0.00 78 1010.2
20260507011036 16 144 8.0 11.3 0.00 1.63 0.00 78 1010.3
20260507010533 16 182 1.6 9.7 0.00 1.68 0.00 78 1010.2
20260507010039 16 157 8.0 14.5 0.00 1.70 0.00 78 1010.3
20260507005530 16 135 4.8 9.7 0.00 1.70 0.00 78 1010.3
20260507005030 16 160 1.6 8.0 0.00 1.73 0.00 78 1010.5
20260507004530 16 156 1.6 12.9 0.00 1.75 0.00 78 1010.5
20260507004033 16 184 6.4 12.9 0.00 1.75 0.00 78 1010.4
20260507003533 16 143 1.6 14.5 0.00 1.75 0.00 78 1010.3
20260507003030 16 175 6.4 14.5 0.00 1.75 0.00 78 1010.3
20260507002533 16 102 0.0 16.1 0.00 1.75 0.00 78 1010.2
20260507002030 16 37 1.6 9.7 0.00 1.75 0.00 78 1010.3
20260507001539 16 138 3.2 14.5 0.00 1.78 0.00 78 1010.2
20260507001033 16 234 3.2 16.1 0.00 1.78 0.00 78 1010.1
20260507000533 16 151 3.2 12.9 0.00 1.78 0.00 77 1010.2
20260507000039 16 140 4.8 12.9 0.00 1.78 0.00 77 1010.2
20260506235533 16 150 0.0 8.0 0.00 1.78 0.00 77 1010.3
20260506235036 16 130 3.2 8.0 0.00 1.78 0.00 77 1010.3
20260506234530 16 147 4.8 14.5 0.00 1.78 0.00 77 1010.4
20260506234030 17 121 6.4 14.5 0.00 1.78 0.00 76 1010.5
20260506233539 17 130 6.4 14.5 0.00 1.78 0.00 76 1010.4
20260506233033 17 134 3.2 12.9 0.00 1.78 0.00 76 1010.4
20260506232530 17 69 3.2 14.5 0.00 1.78 0.00 75 1010.3
20260506232030 17 157 3.2 11.3 0.00 1.78 0.00 75 1010.4
20260506231530 17 93 1.6 14.5 0.00 1.78 0.00 75 1010.4
20260506231030 17 131 1.6 9.7 0.00 1.78 0.00 75 1010.5
20260506230530 17 141 1.6 12.9 0.00 1.78 0.00 75 1010.5